Showing default

IRIDIUM 118, 42807

Orbit data source: Space-Track

IRIDIUM 118, 42807 is a payload satellite owned by Iridium (US) in LEO that was launched on Sun, 25 Jun 2017 UTC via an FALCON 9 launch vehicle from the Air Force Western Test Range (AFWTR). Payload-class satellites include a variety of spacecraft equipped with specific instruments for various scientific and technological missions. These include communications satellites like Starlink; space stations such as the ISS; scientific satellites like the Hubble; Earth observation satellites from companies like Planet Labs, Umbra, and HawkEye 360; GPS; miniature CubeSats for education and research; and military/defense satellites.

Loading next visibility...
Identifier
42807, 2017-039E
Orbit
LEO
Country
Flag of USUS
Related business
Manufacturer
OATK SSG Gilbert
Mission
Operational Commercial Communications
Bus & Motor
ELITEBUS, Unknown motor
Mass
860 kg wet, 700 kg dry
Launch date (UTC)
2017-06-25 (9 years ago)
Launch vehicle
FALCON 9
Launch site
Air Force Western Test Range (AFWTR)
Object type
Payload
Rocket body
Debris
Shape & HBR
Trap Box + 2 Pan, 4.8 m
Radar Cross Section
10.154 m², Large (>1 m²)

Expand to show TLE details & history
Last TLE update: 1 day ago

TLE from 1 day ago
0 IRIDIUM 118
1 42807U 17039E   26262.08244138  .00000107  00000-0  31297-4 0  9993
2 42807  86.3975 314.4077 0002248  94.9692 265.1760 14.34218072483400
Epoch: 2026-09-19T01:58Z
TLE epoch observation values (Epoch: 2026-09-19T01:58:42.935Z)
Latitude
-0.00005°
Longitude
-73.26728°
Altitude
780.853 km
Speed
7.463 km/s
True Right ascension
20h 57m 37s
True Declination
0° 00' 00"
Sunlit
Object was in full shadow at epoch
Visualization orbit readout
Latitude
Unknown
Longitude
Unknown
Altitude
Unknown
Speed
Unknown
Apparent Right ascension
Unknown
Apparent Declination
Unknown
Sunlit
N/A
Visualization observer readout
Local Sidereal Time
19:05:16
Azimuth
Unknown
Elevation
Unknown
Doppler factor
Unknown
Orbital elements
Apogee altitude
776.239 km
Perigee altitude
773.023 km
Semi-major axis
7,152.768 km
Eccentricity
0.00022
Inclination
86.3975°
RAAN
314.4077°
Arg. of periapsis
94.9692°
True anomaly
265.15033°
Mean anomaly
265.176°
Eccentric anomaly
265.16317°
Mean motion
3.58783 °/min
Orbital period
100.34 mins
BSTAR
0.000031297
Loading maneuver chart data...
Computing Atmospheric mass density...
Loading historical data...
Loading historical data...
Loading historical data...
Loading historical data...
Loading historical data...
Loading historical data...
Loading historical data...

Documentation

Showing up to 5 results
|